Location: Dos Palmas
(32.4468°N, 116.8732°W)
Time: 05:21:37
(UTC+00:00)

ASC 2 Rocket - Pass Details

Date: 20 June 2021
Orbit: 556 x 2344 km, 24.0° (Epoch: 29 July)

Event Time Altitude Azimuth Distance (km) Brightness Sun altitude
Exits shadow 10:57:22 29° 193° (SSW) 1,310 4.2 -18.3°
Maximum altitude 10:57:23 29° 193° (SSW) 1,309 4.2 -18.3°
Drops below altitude 10° 11:01:19 10° 132° (SE) 1,985 5.7 -17.7°
Sets 11:03:36 0° 120° (ESE) 2,790 6.6 -17.4°
